Torna al catalogo

CZ-3C DEB

AttivoHEO
NORAD 39345·DEBRIS·🇨🇳 China

Lanciato Oct 31, 2010 da Xichang Satellite Launch Center

Loading…

Prossimi Passaggi (prossime 24 ore)

TLE

AggiornatoSource: Space-Track

Epoca: Sep 14, 2026, 04:28 UTC

1 39345U 10057K   26257.18670890  .00003667  00000-0  33430-2 0  9995
2 39345  20.3061 264.3983 6743995  83.6176 343.3688  2.92683033122115

Traccia CZ-3C DEB in tempo reale con AllMySat

Download on the App Store